Tracking 19832 objects as of 24-Aug-2019
HD Live streaming from Space Station
objects crossing your sky now

FREGAT R/B

Track FREGAT R/B now!


NORAD ID: 41033
Int'l Code: 2015-066B
Perigee: 1,400.6 km
Apogee: 38,801.2 km
Inclination: 63.5 °
Period: 714.4 minutes
Semi major axis: 26471 km
RCS: Unknown
Launch date: November 17, 2015
Source: Commonwealth of Independent States (former USSR) (CIS)
Launch site: PLESETSK MISSILE AND SPACE COMPLEX (PKMTR)

Note: This is a ROCKET BODY
aabbcc
Your satellite tracking list
Your tracking list is empty




NASA's NSSDC Master Catalog

Two Line Element Set (TLE):
1 41033U 15066B   19234.56330127 -.00001217 +00000-0 +00000-0 0  9997
2 41033 063.5035 284.3885 7064207 265.5509 018.1546 02.01569770027709
Source of the keplerian elements: AFSPC